EDT,Max TemperatureF,Mean TemperatureF,Min TemperatureF,Max Dew PointF,MeanDew PointF,Min DewpointF,Max Humidity, Mean Humidity, Min Humidity, Max Sea Level PressureIn, Mean Sea Level PressureIn, Min Sea Level PressureIn, Max VisibilityMiles, Mean VisibilityMiles, Min VisibilityMiles, Max Wind SpeedMPH, Mean Wind SpeedMPH, Max Gust SpeedMPH,PrecipitationIn, CloudCover, Events, WindDirDegrees
2013-8-1,74,71,67,68,66,63,100,87,73,30.02,29.91,29.83,10,6,1,15,5,21,0.70,7,Rain,162
2013-8-2,82,72,62,67,63,57,100,76,51,29.94,29.88,29.84,10,5,0,16,6,21,T,3,Fog-Rain,266
2013-8-3,76,69,62,67,64,57,93,81,69,29.94,29.91,29.88,10,9,4,16,5,21,0.21,5,Rain,243
2013-8-4,78,68,58,63,58,52,100,72,43,30.02,29.92,29.89,10,6,0,16,7,21,0.00,2,Fog,318
2013-8-5,77,65,52,57,52,49,86,62,38,30.10,30.05,30.02,10,10,10,12,3,15,0.00,0,,289
2013-8-6,79,66,53,61,57,52,93,70,47,30.12,30.09,30.06,10,10,10,16,6,21,0.00,5,,157
2013-8-7,74,70,65,70,66,61,93,83,73,30.13,30.10,30.04,10,7,2,15,6,20,0.79,8,Rain,144
2013-8-8,84,76,68,75,71,66,97,86,74,30.06,30.02,29.98,10,7,1,24,3,30,0.51,7,Rain,209
2013-8-9,85,79,72,75,73,71,100,85,70,29.98,29.89,29.83,10,6,0,18,7,23,1.71,6,Fog-Rain-Thunderstorm,218
2013-8-10,83,73,62,72,64,60,100,74,47,30.07,29.99,29.90,10,9,2,15,5,22,0.00,1,,294
2013-8-11,81,69,57,68,60,53,97,71,45,30.16,30.09,30.03,10,10,10,15,2,18,T,4,Rain,319
2013-8-12,83,75,66,69,66,59,97,72,46,30.04,30.01,29.93,10,6,1,9,3,14,0.50,5,Rain,317
2013-8-13,80,73,66,70,66,64,97,80,62,29.90,29.79,29.71,10,7,1,21,3,30,1.56,6,Rain,206
2013-8-14,72,63,53,58,51,46,93,71,49,30.09,29.93,29.82,10,10,10,17,7,25,0.00,2,,309
2013-8-15,76,63,49,55,50,46,96,66,36,30.18,30.13,30.09,10,10,10,12,3,16,0.00,0,,273
2013-8-16,80,66,51,57,53,49,100,68,35,30.21,30.17,30.14,10,9,2,8,1,14,0.00,0,,206
2013-8-17,82,68,54,61,56,52,93,65,36,30.29,30.26,30.22,10,10,4,9,1,13,0.00,1,,20
2013-8-18,73,67,61,63,60,58,93,79,64,30.28,30.22,30.16,10,10,9,6,2,8,0.01,2,Rain,316
2013-8-19,76,68,59,65,62,58,100,80,60,30.16,30.11,30.06,10,8,4,12,5,15,0.00,1,,244
2013-8-20,86,73,60,68,63,60,100,76,51,30.15,30.11,30.09,10,6,2,12,4,17,0.00,0,,250
2013-8-21,86,72,58,69,62,57,100,72,44,30.20,30.15,30.06,10,6,1,12,2,16,0.00,0,,267
2013-8-22,82,75,68,74,70,65,97,81,65,30.08,30.00,29.90,10,5,2,16,3,22,0.10,5,Rain,253
2013-8-23,80,69,57,66,60,54,93,68,42,30.13,30.01,29.93,10,9,7,12,4,16,0.00,0,,323
2013-8-24,80,68,56,54,53,47,93,62,30,30.36,30.28,30.15,10,10,2,13,4,16,0.00,0,,53
2013-8-25,80,65,50,59,54,50,100,70,40,30.42,30.34,30.26,10,10,2,13,4,17,0.00,0,,239
2013-8-26,84,73,62,68,62,55,90,73,55,30.25,30.10,29.94,10,10,6,17,7,23,0.03,3,Rain,237
2013-8-27,88,78,68,69,67,66,90,70,50,29.93,29.90,29.87,10,9,6,13,5,17,T,2,Rain,270
2013-8-28,75,71,67,72,69,66,100,94,87,29.92,29.89,29.86,10,5,0,14,3,16,2.91,6,Fog-Rain,58
2013-8-29,84,76,68,70,69,67,100,79,58,30.04,29.99,29.90,10,5,0,10,4,14,1.26,7,Rain-Thunderstorm,62
2013-8-30,83,75,67,71,68,64,97,81,65,30.04,29.97,29.86,10,7,4,15,5,17,0.00,5,,214
2013-8-31,85,77,69,73,71,68,97,81,65,29.87,29.84,29.79,10,8,2,13,5,15,T,2,,224